Regional Weather Roundup
Issued by NWS

Home | Current Version | Previous Version | Graphics & Text | Print | Product List | Glossary On
Versions: 1 2 3 4 5 6 7 8 9 10 11 12 13 14 15 16 17 18 19 20 21 22 23 24 25 26 27 28 29 30 31 32 33 34 35 36 37 38 39 40 41 42 43 44 45 46 47 48 49 50
000
ASUS45 KTFX 180619
RWRMT
MONTANA HOURLY WEATHER ROUNDUP
NATIONAL WEATHER SERVICE GREAT FALLS MT
1119 PM MST WED DEC 17 2014

NOTE: "FAIR" INDICATES FEW OR NO CLOUDS BELOW 12000 FEET WITH NO
SIGNIFICANT WEATHER AND/OR OBSTRUCTIONS TO VISIBILITY.

* THESE STATIONS ARE NOT UNDER NWS QUALITY CONTROL. THEY DO NOT
   REPORT WEATHER SUCH AS PRECIPITATION OR FOG.

MTZ001>007-043-180700-
WEST OF THE DIVIDE
CITY           SKY/WX    TMP DP  RH WIND       PRES   REMARKS
KALISPELL      CLOUDY    28  27  96 CALM      29.97S
MISSOULA       CLOUDY    28  25  89 CALM      29.99S
BUTTE          PTCLDY     7   5  91 SE3       29.97S
MULLAN PASS    CLOUDY    28  27  96 CALM      29.89R
* ANACONDA     PTCLDY    27  19  72 S11        N/A   WCI  17
* ESSEX        N/A       26  25  96 N/A        N/A
* EUREKA APT   PTCLDY    28  25  89 CALM      30.00S
* HAMILTON APT CLOUDY    30  25  82 NW2       29.97S
* LIBBY APT    CLOUDY    30  28  92 CALM       N/A
* LINCOLN      N/A       17  15  92 N/A        N/A
* LOOKOUT PASS N/A       29  28  96 SW1        N/A
* POLSON       N/A       28  27  96 N/A        N/A
* RONAN APT    CLOUDY    30  28  92 N/A        N/A
* SEELEY LAKE  N/A       18  16  92 E1         N/A
* THOMP F APT  MOCLDY    23  19  85 N4         N/A
$$

MTZ008-052>055-180700-
SOUTHWEST MONTANA
CITY           SKY/WX    TMP DP  RH WIND       PRES   REMARKS
BOZEMAN        PTCLDY    14  10  84 S3        29.99R
DILLON         PTCLDY    18  12  77 S8        29.99R WCI   8
* W YELLOWSTON PTCLDY    18  15  88 N/A        N/A
* THREE FORKS  PTCLDY    14 -11  31 N/A        N/A
* TWIN BRIDGES PTCLDY    18  10  71 N/A        N/A
* BOULDER HILL N/A       27  16  63 SW10       N/A   WCI  18
* MONIDA PASS  N/A       17  17 100 E4         N/A
* RAYNOLDS PAS N/A       14   3  61 S6         N/A   WCI   5
* WHITEHALL    N/A       22  16  78 NW5        N/A   WCI  15
* WISE RIVER   N/A       13  10  88 SW3        N/A
$$

MTZ009>010-012-014-046-048-049-054-180700-
EAST SLOPES AND CENTRAL MONTANA
CITY           SKY/WX    TMP DP  RH WIND       PRES   REMARKS
CUT BANK       MOCLDY    12   9  88 N3        29.86F
GREAT FALLS    PTCLDY    30  25  82 S12       29.89R WCI  20
HELENA         FOG       19  19 100 CALM      29.97R VSB M1/4
MALMSTROM AFB  PTCLDY    27  23  85 SW6       29.92R WCI  20
* CONRAD       PTCLDY    16  12  84 CALM       N/A
* DEARBORN     N/A       25  23  92 S3         N/A
* EAST GLACIER N/A       34  25  70 W27G37     N/A   WCI  21
* MONARCH      N/A       22  16  78 S9         N/A   WCI  12
* PENDROY      N/A       27  21  78 SE1        N/A
* ROGERS PASS  N/A       29  22  75 SE11G22    N/A   WCI  19
* SWEET GRASS  N/A       15  15 100 S5         N/A   WCI   7
* WHITE SULPH  N/A       27  19  72 S10        N/A   WCI  18
$$

MTZ011-013-016-021-035-040-045-047-050-051-180700-
NORTH CENTRAL MONTANA
CITY           SKY/WX    TMP DP  RH WIND       PRES   REMARKS
HAVRE          FOG       21  21 100 S3        29.94R VSB 1/2
LEWISTOWN      PTCLDY    28  21  75 CALM      29.90R
* N BAR RANCH  CLOUDY    30  27  89 CALM      29.90R
* CHINOOK      PTCLDY    21  19  92 CALM      29.95R
* CHESTER      N/A       24  22  92 SW2        N/A
* DENTON       N/A       26  25  96 S4         N/A
* GEYSER       N/A       26  17  69 NW1        N/A
* JUDITH GAP   N/A       20  18  92 SW6        N/A   WCI  12
* LOMA         N/A       22  21  96 W2         N/A
$$

MTZ017>020-022>027-061-062-180700-
NORTHEAST MONTANA
CITY           SKY/WX    TMP DP  RH WIND       PRES   REMARKS
GLASGOW        CLOUDY    25  19  78 E9        29.97S WCI  16
GLENDIVE       CLOUDY    23  19  85 SE5       30.00S WCI  16
JORDAN         PTCLDY    27  23  85 E5        29.94S WCI  21
SIDNEY         CLOUDY    23  18  81 SE7       30.05S WCI  15
WOLF POINT     CLOUDY    25  18  75 E9        30.02S WCI  16
* BEAVER HILL  N/A       21  18  88 S6         N/A   WCI  13
* CIRCLE       N/A       24  21  88 N/A        N/A
* NAVAJO       N/A       18  16  92 S8         N/A   WCI   8
* PLENTYWOOD A PTCLDY   N/A N/A N/A S6        30.02S
* POPLAR APT   CLEAR     21  18  88 E7        30.02S WCI  12
* SACO         N/A       24  21  88 E8         N/A   WCI  15
$$

MTZ028>042-056>058-180700-
SOUTHCENTRAL AND SOUTHEAST MONTANA
CITY           SKY/WX    TMP DP  RH WIND       PRES   REMARKS
BAKER          CLOUDY    21  21 100 S7        29.97S WCI  12
BILLINGS       FAIR      27  19  72 SW15      29.94R WCI  15
LIVINGSTON     CLEAR     34  18  52 W24G33    29.94R WCI  22
MILES CITY     CLOUDY    25  21  85 CALM      29.96S
* FORSYTH APT  PTCLDY    19  19 100 CALM      29.95S
* LAUREL APT   CLEAR     25  16  69 S8         N/A   WCI  16
* ROUNDUP APT  PTCLDY    28  25  89 N/A        N/A
* ALZADA       N/A       18  16  92 E1         N/A
* HYSHAM       N/A       29  23  78 W4         N/A
* LAME DEER    N/A       29  28  96 N/A        N/A
* REED POINT   N/A       20  19  96 N/A        N/A
* ROSCOE HILL  N/A       29  10  45 SW4        N/A
$$

REGIONAL REPORTS...DAKOTAS
CITY           SKY/WX    TMP DP  RH WIND       PRES   REMARKS
WILLISTON      CLOUDY    19  14  81 S8        30.06S WCI   9
DICKINSON      CLOUDY    19  16  88 S12       30.02S WCI   6
BEACH          CLOUDY    19  19 100 S10       30.00S WCI   8
CROSBY         CLOUDY    18  16  92 SE12      30.07F WCI   5
TIOGA          CLOUDY    16  16 100 S12       30.08F WCI   3
WATFORD CITY   CLOUDY    19  16  88 SE5       30.04S WCI  12
BISMARCK       CLOUDY    18  12  77 SE10      30.17S WCI   6
GRAND FORKS    PTCLDY     7   5  91 E5        30.31F WCI  -2
FARGO          PTCLDY     9   5  84 E5        30.31S
BUFFALO SD     PTCLDY    21  19  92 S10       29.92S WCI  10
RAPID CITY     FOG       21  19  92 SE6       30.01R WCI  13
$$

REGIONAL REPORTS...WYOMING/IDAHO/WASHINGTON
CITY           SKY/WX    TMP DP  RH WIND       PRES   REMARKS
GILLETTE       CLEAR     27  19  72 S7        29.94S WCI  19
SHERIDAN       PTCLDY    18  12  77 CALM      29.94R
CODY           PTCLDY    27  12  53 NE3       29.93R
YELLOWSTONE LA MOCLDY    16  12  84 CALM      30.00S
SALMON         MOCLDY    19  18  96 CALM      30.06R
MULLAN PASS    CLOUDY    28  27  96 CALM      29.89S
SAND POINT     LGT RAIN  32  32 100 CALM      29.98S VSB 2 1/2
SPOKANE        LGT RAIN  36  34  92 CALM      29.95R
$$

REGIONAL REPORTS...ALBERTA
CITY           SKY/WX    TMP DP  RH WIND       PRES   REMARKS
CALGARY        PTCLDY    36  18  48 W10G17    29.80R WCI  29
LETHBRIDGE     PTCLDY    27  23  85 SW9       29.84S WCI  18
MEDICINE HAT   CLEAR     23  21  92 SW14      29.87S WCI  10
EDMONTON       FOG       16  14  92 S5        29.83S VSB 1/2  WCI   8
WATERTON GATE  N/A       36  27  70 SW15G22    N/A   WCI  27
CARDSTON       N/A       23  21  92 SW2        N/A
MILK RIVER     N/A       10   9  96 S5         N/A   WCI   1
$$

REGIONAL REPORTS...SASKATCHEWAN
CITY           SKY/WX    TMP DP  RH WIND       PRES   REMARKS
SWIFT CURRENT  CLOUDY    23  21  92 SW16G22   29.87S WCI  10
REGINA         LGT SNOW  18  16  92 S14       30.03S WCI   4
VAL MARIE      N/A       23  23 100 S5         N/A   WCI  16
ASSINIBOIA     N/A       21  18  88 S8         N/A   WCI  11
CORONACH       N/A       19  18  96 S10        N/A   WCI   8

$$




USA.gov is the U.S. government's official web portal to all federal, state and local government web resources and services.